NSZ4158 EKCH-ESSA

Flight info

Callsign NSZ4158
Flight time 0h 52m
Altitude 39000
Route KEMAX N851 ROXEN DCT MIKNA N851 PELUP Z226 NILUG
Aircraft B738/M-SDE2E3FGHIRWXY/LB1

Departure

Time 2026-04-26 17:56
Airport Copenhagen Kastrup Airport (EKCH)

Arrival

Time 2026-04-26 18:48
Airport Stockholm-Arlanda Airport (ESSA)
Time Latitude Longitude Altitude Speed Heading
2026-04-26 17:12 55.62874 12.64068 17 ft 0 kts 10°
2026-04-26 17:43 55.62858 12.64063 17 ft 4 kts 13°
2026-04-26 17:43 55.62833 12.64048 20 ft 4 kts 36°
2026-04-26 17:43 55.62821 12.64018 16 ft 2 kts 90°
2026-04-26 17:43 55.62822 12.63973 16 ft 4 kts 99°
2026-04-26 17:44 55.62828 12.63926 16 ft 4 kts 106°
2026-04-26 17:44 55.62835 12.63882 20 ft 3 kts 104°
2026-04-26 17:44 55.62836 12.63877 19 ft 1 kts 104°
2026-04-26 17:48 55.62835 12.63880 20 ft 1 kts 104°
2026-04-26 17:48 55.62821 12.63936 16 ft 8 kts 122°
2026-04-26 17:48 55.62764 12.63946 16 ft 9 kts 206°
2026-04-26 17:49 55.62702 12.63878 16 ft 12 kts 212°
2026-04-26 17:49 55.62624 12.63925 16 ft 15 kts 123°
2026-04-26 17:49 55.62558 12.64104 16 ft 19 kts 125°
2026-04-26 17:49 55.62475 12.64321 16 ft 22 kts 127°
2026-04-26 17:50 55.62384 12.64539 18 ft 22 kts 123°
2026-04-26 17:50 55.62308 12.64746 18 ft 14 kts 123°
2026-04-26 17:50 55.62228 12.64789 16 ft 7 kts 190°
2026-04-26 17:50 55.62196 12.64758 19 ft 6 kts 213°
2026-04-26 17:51 55.62148 12.64703 17 ft 12 kts 213°
2026-04-26 17:51 55.62060 12.64599 17 ft 18 kts 213°
2026-04-26 17:51 55.61947 12.64507 16 ft 18 kts 188°
2026-04-26 17:51 55.61825 12.64532 16 ft 17 kts 172°
2026-04-26 17:52 55.61705 12.64570 16 ft 18 kts 176°
2026-04-26 17:52 55.61595 12.64475 18 ft 18 kts 214°
2026-04-26 17:52 55.61483 12.64348 16 ft 21 kts 214°
2026-04-26 17:52 55.61350 12.64195 18 ft 25 kts 213°
2026-04-26 17:53 55.61194 12.64015 17 ft 27 kts 214°
2026-04-26 17:53 55.61043 12.63841 16 ft 25 kts 213°
2026-04-26 17:53 55.60902 12.63680 16 ft 23 kts 211°
2026-04-26 17:54 55.60752 12.63657 18 ft 7 kts 131°
2026-04-26 17:54 55.60738 12.63683 16 ft 1 kts 132°
2026-04-26 17:54 55.60729 12.63703 16 ft 4 kts 129°
2026-04-26 17:54 55.60695 12.63777 17 ft 12 kts 126°
2026-04-26 17:55 55.60689 12.63889 19 ft 10 kts 42°
2026-04-26 17:55 55.60783 12.64036 19 ft 39 kts 42°
2026-04-26 17:55 55.61189 12.64665 16 ft 113 kts 41°
2026-04-26 17:55 55.61912 12.65770 201 ft 153 kts 40°
2026-04-26 17:56 55.62706 12.67006 982 ft 155 kts 39°
2026-04-26 17:56 55.64593 12.69887 1799 ft 201 kts 38°
2026-04-26 17:57 55.66946 12.73457 2456 ft 236 kts 38°
2026-04-26 17:57 55.68253 12.75405 2805 ft 259 kts 37°
2026-04-26 17:57 55.69647 12.77471 3538 ft 263 kts 37°
2026-04-26 17:57 55.71047 12.79583 4339 ft 265 kts 37°
2026-04-26 17:58 55.75293 12.86018 6820 ft 270 kts 36°
2026-04-26 17:59 55.78138 12.90475 8431 ft 275 kts 36°
2026-04-26 17:59 55.79577 12.92742 9272 ft 278 kts 36°
2026-04-26 17:59 55.81013 12.95004 10131 ft 280 kts 36°
2026-04-26 17:59 55.82490 12.97331 10739 ft 292 kts 36°
2026-04-26 18:00 55.84088 12.99834 10928 ft 318 kts 36°
2026-04-26 18:00 55.85806 13.02533 11167 ft 339 kts 36°
2026-04-26 18:00 55.87599 13.05367 11737 ft 348 kts 36°
2026-04-26 18:00 55.89417 13.08254 12510 ft 352 kts 36°
2026-04-26 18:01 55.91252 13.11174 13333 ft 355 kts 36°
2026-04-26 18:01 55.93097 13.14110 14087 ft 359 kts 36°
2026-04-26 18:01 55.94984 13.17107 14744 ft 364 kts 36°
2026-04-26 18:01 55.96892 13.20135 15452 ft 368 kts 36°
2026-04-26 18:02 55.98813 13.23191 16157 ft 372 kts 36°
2026-04-26 18:02 55.99443 13.24195 16385 ft 373 kts 36°
2026-04-26 18:02 56.02686 13.29377 17527 ft 380 kts 36°
2026-04-26 18:02 56.04670 13.32556 18268 ft 384 kts 36°
2026-04-26 18:03 56.06670 13.35768 18926 ft 388 kts 36°
2026-04-26 18:03 56.08690 13.39014 19544 ft 392 kts 36°
2026-04-26 18:03 56.10728 13.42289 20159 ft 396 kts 36°
2026-04-26 18:03 56.12790 13.45591 20801 ft 398 kts 34°
2026-04-26 18:04 56.14961 13.48689 21406 ft 399 kts 30°
2026-04-26 18:04 56.17225 13.51610 21979 ft 402 kts 29°
2026-04-26 18:04 56.19526 13.54510 22531 ft 406 kts 29°
2026-04-26 18:05 56.24166 13.60448 23631 ft 414 kts 30°
2026-04-26 18:05 56.26510 13.63511 24107 ft 418 kts 30°
2026-04-26 18:05 56.28857 13.66603 24572 ft 420 kts 30°
2026-04-26 18:05 56.31224 13.69728 25032 ft 422 kts 30°
2026-04-26 18:06 56.33601 13.72867 25507 ft 425 kts 30°
2026-04-26 18:06 56.35993 13.76031 25973 ft 427 kts 30°
2026-04-26 18:06 56.38393 13.79208 26443 ft 429 kts 30°
2026-04-26 18:06 56.40807 13.82411 26862 ft 431 kts 30°
2026-04-26 18:07 56.43233 13.85635 27262 ft 434 kts 30°
2026-04-26 18:07 56.45641 13.88845 27657 ft 437 kts 30°
2026-04-26 18:07 56.48095 13.92123 28038 ft 439 kts 30°
2026-04-26 18:07 56.49758 13.94349 28280 ft 441 kts 30°
2026-04-26 18:08 56.53038 13.98744 28791 ft 444 kts 30°
2026-04-26 18:08 56.55528 14.02083 29170 ft 447 kts 30°
2026-04-26 18:08 56.58031 14.05444 29524 ft 449 kts 30°
2026-04-26 18:08 56.60548 14.08822 29903 ft 451 kts 30°
2026-04-26 18:09 56.63076 14.12219 30234 ft 453 kts 30°
2026-04-26 18:09 56.65616 14.15640 30568 ft 454 kts 30°
2026-04-26 18:09 56.68143 14.19055 30980 ft 452 kts 30°
2026-04-26 18:09 56.70660 14.22467 31423 ft 450 kts 30°
2026-04-26 18:10 56.73166 14.25870 31817 ft 449 kts 30°
2026-04-26 18:10 56.75670 14.29273 32166 ft 449 kts 30°
2026-04-26 18:10 56.78169 14.32675 32529 ft 448 kts 30°
2026-04-26 18:10 56.80663 14.36076 32918 ft 447 kts 30°
2026-04-26 18:11 56.83147 14.39471 33338 ft 446 kts 30°
2026-04-26 18:11 56.84788 14.41716 33604 ft 444 kts 30°
2026-04-26 18:11 56.87258 14.45101 33992 ft 443 kts 30°
2026-04-26 18:11 56.90556 14.49627 34406 ft 443 kts 30°
2026-04-26 18:12 56.92987 14.52972 34657 ft 443 kts 30°
2026-04-26 18:12 56.95454 14.56380 34955 ft 444 kts 30°
2026-04-26 18:12 56.97913 14.59783 35209 ft 444 kts 31°
2026-04-26 18:13 57.02050 14.65505 35214 ft 449 kts 31°
2026-04-26 18:13 57.07034 14.72425 35315 ft 449 kts 31°
2026-04-26 18:13 57.08721 14.74770 35489 ft 449 kts 31°
2026-04-26 18:14 57.12008 14.79352 35955 ft 445 kts 31°
2026-04-26 18:14 57.14468 14.82789 36302 ft 443 kts 31°
2026-04-26 18:14 57.16921 14.86220 36619 ft 442 kts 31°
2026-04-26 18:14 57.19366 14.89655 36865 ft 443 kts 32°
2026-04-26 18:15 57.21730 14.93350 37080 ft 447 kts 36°
2026-04-26 18:15 57.24018 14.97267 37346 ft 448 kts 37°
2026-04-26 18:15 57.26263 15.01256 37607 ft 448 kts 38°
2026-04-26 18:15 57.28500 15.05263 37881 ft 448 kts 37°
2026-04-26 18:16 57.30731 15.09248 38251 ft 445 kts 37°
2026-04-26 18:16 57.35170 15.17094 38782 ft 443 kts 37°
2026-04-26 18:16 57.37416 15.21034 38934 ft 445 kts 36°
2026-04-26 18:17 57.39662 15.24966 39091 ft 445 kts 37°
2026-04-26 18:17 57.41918 15.28918 39191 ft 446 kts 37°
2026-04-26 18:17 57.46447 15.36869 39188 ft 446 kts 37°
2026-04-26 18:18 57.50936 15.44791 39190 ft 443 kts 37°
2026-04-26 18:18 57.55390 15.52675 39199 ft 441 kts 37°
2026-04-26 18:19 57.59822 15.60540 39193 ft 439 kts 37°
2026-04-26 18:19 57.64217 15.68379 39188 ft 439 kts 37°
2026-04-26 18:20 57.68636 15.76284 39186 ft 440 kts 37°
2026-04-26 18:20 57.72311 15.82878 39180 ft 441 kts 37°
2026-04-26 18:21 57.77494 15.92212 39184 ft 443 kts 37°
2026-04-26 18:21 57.81946 16.00260 39199 ft 445 kts 37°
2026-04-26 18:22 57.86388 16.08320 39187 ft 447 kts 37°
2026-04-26 18:22 57.90866 16.16478 39169 ft 448 kts 37°
2026-04-26 18:23 57.95334 16.24648 39167 ft 448 kts 37°
2026-04-26 18:23 57.99807 16.32857 38896 ft 448 kts 37°
2026-04-26 18:24 58.02019 16.36931 38639 ft 443 kts 37°
2026-04-26 18:24 58.04213 16.40983 38346 ft 439 kts 37°
2026-04-26 18:24 58.06397 16.45017 38076 ft 439 kts 37°
2026-04-26 18:24 58.08581 16.49054 37801 ft 438 kts 37°
2026-04-26 18:25 58.10733 16.53040 37503 ft 439 kts 37°
2026-04-26 18:25 58.12952 16.57141 37095 ft 441 kts 37°
2026-04-26 18:25 58.15120 16.61157 36720 ft 442 kts 37°
2026-04-26 18:25 58.17318 16.65243 36344 ft 443 kts 37°
2026-04-26 18:26 58.19543 16.69393 35840 ft 442 kts 36°
2026-04-26 18:26 58.21704 16.73436 35130 ft 443 kts 36°
2026-04-26 18:26 58.23924 16.77598 34447 ft 443 kts 36°
2026-04-26 18:26 58.26088 16.81661 33674 ft 443 kts 36°
2026-04-26 18:27 58.28277 16.85778 32859 ft 442 kts 36°
2026-04-26 18:27 58.30457 16.89886 32111 ft 440 kts 36°
2026-04-26 18:27 58.32632 16.93993 31318 ft 440 kts 36°
2026-04-26 18:27 58.34806 16.98103 30570 ft 440 kts 36°
2026-04-26 18:28 58.36972 17.02207 29922 ft 435 kts 35°
2026-04-26 18:28 58.39081 17.06231 29660 ft 421 kts 35°
2026-04-26 18:28 58.41122 17.10134 29352 ft 409 kts 35°
2026-04-26 18:28 58.43127 17.13959 28356 ft 411 kts 35°
2026-04-26 18:29 58.45170 17.17825 27044 ft 424 kts 35°
2026-04-26 18:29 58.47265 17.21802 26255 ft 423 kts 36°
2026-04-26 18:29 58.49340 17.25773 25543 ft 420 kts 36°
2026-04-26 18:29 58.51394 17.29724 24911 ft 415 kts 36°
2026-04-26 18:30 58.53422 17.33629 24284 ft 411 kts 36°
2026-04-26 18:30 58.55429 17.37498 23630 ft 408 kts 36°
2026-04-26 18:30 58.57418 17.41334 22916 ft 404 kts 36°
2026-04-26 18:30 58.59387 17.45140 22262 ft 399 kts 36°
2026-04-26 18:31 58.61325 17.48891 21658 ft 393 kts 37°
2026-04-26 18:31 58.63237 17.52609 21036 ft 389 kts 37°
2026-04-26 18:31 58.65129 17.56289 20431 ft 385 kts 37°
2026-04-26 18:31 58.66998 17.59928 19851 ft 380 kts 37°
2026-04-26 18:32 58.68848 17.63530 19295 ft 376 kts 37°
2026-04-26 18:32 58.70676 17.67094 18710 ft 373 kts 37°
2026-04-26 18:32 58.72492 17.70637 18077 ft 370 kts 37°
2026-04-26 18:32 58.74291 17.74137 17423 ft 366 kts 37°
2026-04-26 18:33 58.76046 17.77559 16838 ft 362 kts 37°
2026-04-26 18:33 58.77826 17.81051 16214 ft 358 kts 38°
2026-04-26 18:33 58.79534 17.84411 15714 ft 352 kts 38°
2026-04-26 18:33 58.81254 17.87737 15155 ft 346 kts 34°
2026-04-26 18:34 58.83206 17.90185 14855 ft 327 kts 20°
2026-04-26 18:34 58.85254 17.92069 14587 ft 331 kts 19°
2026-04-26 18:34 58.87369 17.93987 14301 ft 339 kts 19°
2026-04-26 18:34 58.89509 17.95952 14011 ft 340 kts 20°
2026-04-26 18:35 58.91629 17.97927 13689 ft 337 kts 20°
2026-04-26 18:35 58.93732 17.99906 13393 ft 335 kts 20°
2026-04-26 18:35 58.95824 18.01885 13082 ft 333 kts 20°
2026-04-26 18:35 58.97902 18.03859 12790 ft 332 kts 20°
2026-04-26 18:36 58.99976 18.05832 12501 ft 332 kts 21°
2026-04-26 18:36 59.02048 18.07808 12220 ft 332 kts 21°
2026-04-26 18:36 59.04125 18.09788 11931 ft 333 kts 21°
2026-04-26 18:36 59.06210 18.11777 11646 ft 334 kts 21°
2026-04-26 18:37 59.08284 18.13757 11355 ft 329 kts 21°
2026-04-26 18:37 59.10363 18.15289 11063 ft 312 kts
2026-04-26 18:37 59.12460 18.15444 10827 ft 295 kts 348°
2026-04-26 18:37 59.14308 18.14051 10553 ft 285 kts 330°
2026-04-26 18:38 59.15998 18.12111 10243 ft 279 kts 328°
2026-04-26 18:38 59.17636 18.10146 9941 ft 274 kts 327°
2026-04-26 18:38 59.19245 18.08202 9580 ft 270 kts 327°
2026-04-26 18:38 59.20825 18.06280 9262 ft 266 kts 327°
2026-04-26 18:39 59.22368 18.04396 8921 ft 258 kts 327°
2026-04-26 18:39 59.23864 18.02563 8580 ft 251 kts 327°
2026-04-26 18:39 59.25330 18.00762 8140 ft 248 kts 327°
2026-04-26 18:39 59.26795 17.98950 7605 ft 249 kts 327°
2026-04-26 18:40 59.28248 17.97143 7109 ft 246 kts 327°
2026-04-26 18:40 59.29674 17.95368 6654 ft 238 kts 329°
2026-04-26 18:40 59.31093 17.93838 6266 ft 226 kts 332°
2026-04-26 18:40 59.32448 17.92446 5951 ft 214 kts 332°
2026-04-26 18:41 59.33715 17.91146 5675 ft 202 kts 332°
2026-04-26 18:41 59.34926 17.89902 5459 ft 192 kts 332°
2026-04-26 18:41 59.36094 17.88699 5266 ft 186 kts 332°
2026-04-26 18:41 59.37213 17.87545 5090 ft 179 kts 332°
2026-04-26 18:42 59.38330 17.86664 5102 ft 171 kts 352°
2026-04-26 18:42 59.39548 17.86947 4931 ft 181 kts
2026-04-26 18:42 59.40793 17.87272 4671 ft 178 kts
2026-04-26 18:42 59.42003 17.87627 4418 ft 173 kts
2026-04-26 18:43 59.43171 17.88019 4184 ft 167 kts
2026-04-26 18:43 59.44295 17.88417 3944 ft 160 kts
2026-04-26 18:43 59.45357 17.88799 3724 ft 154 kts
2026-04-26 18:43 59.46389 17.89173 3519 ft 148 kts
2026-04-26 18:44 59.47391 17.89536 3320 ft 146 kts
2026-04-26 18:44 59.48399 17.89901 3113 ft 148 kts
2026-04-26 18:44 59.49408 17.90267 2904 ft 147 kts
2026-04-26 18:44 59.50409 17.90631 2700 ft 146 kts
2026-04-26 18:45 59.51400 17.90992 2499 ft 145 kts
2026-04-26 18:45 59.52392 17.91351 2307 ft 145 kts
2026-04-26 18:45 59.53387 17.91712 2105 ft 145 kts
2026-04-26 18:45 59.54380 17.92074 1897 ft 145 kts
2026-04-26 18:46 59.55370 17.92433 1699 ft 144 kts
2026-04-26 18:46 59.56343 17.92787 1493 ft 140 kts
2026-04-26 18:46 59.57261 17.93121 1317 ft 132 kts
2026-04-26 18:46 59.58160 17.93446 1123 ft 130 kts
2026-04-26 18:47 59.59056 17.93771 929 ft 133 kts
2026-04-26 18:47 59.59983 17.94109 753 ft 138 kts
2026-04-26 18:47 59.60942 17.94443 547 ft 143 kts
2026-04-26 18:47 59.61903 17.94805 352 ft 143 kts
2026-04-26 18:48 59.62861 17.95168 154 ft 134 kts
2026-04-26 18:48 59.63692 17.95457 113 ft 103 kts
2026-04-26 18:48 59.64246 17.95662 110 ft 60 kts
2026-04-26 18:48 59.64521 17.95673 107 ft 27 kts 345°
2026-04-26 18:49 59.64640 17.95597 106 ft 10 kts 339°
2026-04-26 18:49 59.64677 17.95569 106 ft 3 kts 338°
2026-04-26 18:49 59.64687 17.95561 106 ft 0 kts 338°
2026-04-26 18:50 59.64691 17.95558 106 ft 2 kts 341°
2026-04-26 18:50 59.64759 17.95512 105 ft 18 kts 340°
2026-04-26 18:50 59.64896 17.95485 107 ft 20 kts 12°
2026-04-26 18:50 59.65033 17.95512 111 ft 20 kts 354°
2026-04-26 18:51 59.65190 17.95438 120 ft 25 kts 345°
2026-04-26 18:51 59.65351 17.95351 125 ft 23 kts 346°
2026-04-26 18:51 59.65503 17.95272 126 ft 22 kts 345°
2026-04-26 18:51 59.65652 17.95192 127 ft 22 kts 346°
2026-04-26 18:52 59.65747 17.95013 125 ft 21 kts 264°
2026-04-26 18:52 59.65725 17.94830 122 ft 21 kts 256°
2026-04-26 18:52 59.65675 17.94435 124 ft 25 kts 256°
2026-04-26 18:52 59.65629 17.94062 118 ft 30 kts 256°
2026-04-26 18:53 59.65578 17.93659 112 ft 29 kts 256°
2026-04-26 18:53 59.65529 17.93288 110 ft 27 kts 256°
2026-04-26 18:53 59.65481 17.92942 111 ft 25 kts 250°
2026-04-26 18:53 59.65409 17.92644 110 ft 23 kts 230°
2026-04-26 18:54 59.65302 17.92493 110 ft 15 kts 175°
2026-04-26 18:54 59.65260 17.92589 111 ft 9 kts 109°
2026-04-26 18:54 59.65236 17.92715 110 ft 8 kts 126°
2026-04-26 18:54 59.65202 17.92720 111 ft 8 kts 191°
2026-04-26 18:55 59.65157 17.92703 111 ft 4 kts 191°
2026-04-26 18:55 59.65148 17.92699 111 ft 0 kts 191°